Miscellaneous Local Product
Issued by NWS North Platte, NE

Home | Current Version | Previous Version | Text Only | Print | Product List | Glossary On
Versions: 1 2 3 4 5 6 7 8 9 10 11 12 13 14 15 16 17 18 19 20 21 22 23 24 25 26 27 28 29 30 31 32 33 34 35 36 37 38 39 40 41 42 43 44 45 46 47 48 49 50
000
AXUS43 KLBF 291710
MISLBF


WESTERN AND NORTH CENTRAL NEBRASKA HOURLY WEATHER ROUNDUP
NATIONAL WEATHER SERVICE NORTH PLATTE NE
1200 PM CDT SAT AUG 29 2015

NOTE: "FAIR" INDICATES FEW OR NO CLOUDS BELOW 12,000 FEET WITH NO
SIGNIFICANT WEATHER AND/OR OBSTRUCTIONS TO VISIBILITY.

NOTE: STATIONS NOT REPORTING VARIABLES SUCH AS SKY/WEATHER OR
PRESSURE ARE PROVIDED BY THE NEBRASKA DEPARTMENT OF
ROADS...RAWS...AND APRS NETWORKS...AND ARE NOT UNDER
NATIONAL WEATHER SERVICE QUALITY CONTROL.

...OBSERVATIONS IN AND NEAR THE EASTERN PANHANDLE OF NEBRASKA...

CITY           SKY/WX    TMP DP  RH WIND       PRES   REMARKS
PINE RIDGE     SUNNY     84  52  33 SW5       30.11F
CHADRON        SUNNY     86  50  28 S7        30.10F
ALLIANCE       SUNNY     86  45  23 SW9       30.16S
SIDNEY         SUNNY     86  43  22 SW9       30.21F
CRESCENT LAKE    N/A     86  52  30 S6          N/A
BIG SPRINGS      N/A     77  56  47 CALM        N/A
$$

...OBSERVATIONS IN NORTH CENTRAL NEBRASKA...

CITY           SKY/WX    TMP DP  RH WIND       PRES   REMARKS
VALENTINE      PTSUNNY   77  60  55 SW7       30.09S
THEDFORD       MOSUNNY   83  61  46 W6        30.13F
AINSWORTH      MOSUNNY   79  64  60 SW3       30.10F
O`NEILL        SUNNY     76  67  71 S6        30.10S
ORD            MOSUNNY   77  64  64 CALM      30.10F
BROKEN BOW     MOSUNNY   78  66  66 VRB3      30.13S
SPRINGVIEW       N/A     76  70  82 CALM        N/A
SARGENT          N/A     74  64  71 CALM        N/A
CHAMBERS         N/A     80  68  67 CALM        N/A
EWING            N/A     72  68  88 SW3         N/A
$$

...OBSERVATIONS IN SOUTHWEST NEBRASKA AND FAR NORTHEAST COLORADO...

CITY           SKY/WX    TMP DP  RH WIND       PRES   REMARKS
WRAY           FAIR      86  49  27 SE5       30.20F
HOLYOKE        FAIR      84  54  34 S5        30.20S
IMPERIAL       SUNNY     84  58  40 SW6       30.17F
OGALLALA       SUNNY     77  58  51 CALM      30.17S
NORTH PLATTE   MOSUNNY   79  63  57 W5        30.14F
MCCOOK         SUNNY     82  62  50 CALM      30.14F
LEXINGTON      SUNNY     77  66  70 W3        30.14S
PAXTON           N/A     79  64  60 CALM        N/A
BRADY            N/A     76  67  73 CALM        N/A
CALLAWAY         N/A     81  69  67 W5          N/A
$$

...OBSERVATIONS IN CENTRAL LINCOLN COUNTY AREA...

CITY           SKY/WX    TMP DP  RH WIND       PRES   REMARKS
N.P. AIRPORT   MOSUNNY   79  63  57 W5        30.14F
N.P. DOWNTOWN    N/A     79  65  62 CALM        N/A
N.P. SOUTHEAST   N/A     80  64  58 CALM        N/A
$$

...SOME OBSERVATIONS FROM AROUND THE REGION...

CITY           SKY/WX    TMP DP  RH WIND       PRES   REMARKS
DENVER         SUNNY     83  43  24 SW13      30.27F
LARAMIE        SUNNY     73  40  30 VRB3      30.37S
CHEYENNE       SUNNY     80  42  25 S13G21    30.30F
SCOTTSBLUFF    SUNNY     77  54  44 E7        30.17S
RAPID CITY     SUNNY     81  60  48 SE6       30.05F
PIERRE         SUNNY     80  61  52 SW6       29.99S
WINNER         FAIR      78  63  59 S6        30.04S
SIOUX FALLS    MOSUNNY   66  59  78 VRB6      30.08S
OMAHA          CLOUDY    64  59  83 N7        30.09R
GRAND ISLAND   SUNNY     71  61  70 N6        30.12S
KANSAS CITY    CLOUDY    70  66  87 NW5       30.04R
WICHITA        CLOUDY    71  60  68 N10       30.07R
HAYS           SUNNY     79  57  47 N14       30.11F
LIBERAL        SUNNY     81  64  57 N10       30.18S
GOODLAND       SUNNY     82  52  35 SW6       30.21S
$$



USA.gov is the U.S. government's official web portal to all federal, state and local government web resources and services.